Location: Bothwell
(41.7170°N, 112.2589°W)
Time: 14:19:42
(UTC+00:00)

Vanguard 2 - Pass Details

Date: 15 May 2026
Orbit: 553 x 2894 km, 32.9° (Epoch: 8 June)

Event Time Altitude Azimuth Distance (km) Brightness Sun altitude
Rises 08:04:45 0° 219° (SW) 6,176 - -28.7°
Reaches altitude 10° 08:08:58 10° 212° (SSW) 5,382 - -28.5°
Exits shadow 08:20:03 37° 175° (S) 3,909 10.5 -28.1°
Maximum altitude 08:23:53 40° 151° (SSE) 3,774 10.6 -27.9°
Drops below altitude 10° 08:38:33 10° 90° (E) 5,318 12.0 -27.1°
Sets 08:42:38 0° 83° (E) 6,101 12.5 -26.8°
